This demonstration page uses our WeatherBlox Daily Observations layout. Learn more.

Left ArrowRight Arrow

39.51506, -84.39828

Hourly Observations for November 19, 2020

Temp ( °F °C ) Dew Point ( °F °C ) Humidity (%) Winds ( mph kmh ) Pressure ( in mb ) Visibility ( mi km ) Precip ( " mm )
12:15 am 00:15 Clear 38 3.4 24 -4.7 56 56 SW 8 13 30.43 1030 10 16.0934 0 0
12:35 am 00:35 Clear 36 2 24 -4.2 64 64 WSW 8 13 30.42 1030 10 16.0934 0 0
12:55 am 00:55 Clear 35 1.8 25 -4 66 66 WSW 7 11 30.42 1030 10 16.0934 0 0
1:15 am 01:15 Clear 33 0.8 24 -4.2 70 70 W 7 11 30.42 1030 10 16.0934 0 0
1:35 am 01:35 Clear 37 2.5 24 -4.5 60 60 WSW 8 13 30.42 1030 10 16.0934 0 0
1:55 am 01:55 Clear 38 3.3 23 -4.8 56 56 WSW 9 15 30.41 1030 10 16.0934 0 0
2:15 am 02:15 Clear 39 3.9 23 -5 53 53 WSW 9 15 30.41 1030 10 16.0934 0 0
2:35 am 02:35 Clear 39 3.7 23 -5 53 53 WSW 9 15 30.41 1030 10 16.0934 0 0
2:55 am 02:55 Clear 38 3.5 23 -5.1 54 54 WSW 8 13 30.4 1029 10 16.0934 0 0
3:15 am 03:15 Clear 38 3.4 23 -5.1 54 54 SW 8 13 30.4 1029 10 16.0934 0 0
3:35 am 03:35 Clear 38 3.4 23 -5.1 54 54 SW 8 13 30.4 1029 10 16.0934 0 0
3:55 am 03:55 Clear 38 3.4 23 -5 55 55 SW 8 13 30.39 1029 10 16.0934 0 0
4:15 am 04:15 Clear 38 3.5 23 -5.1 54 54 WSW 7 11 30.4 1029 10 16.0934 0 0
4:35 am 04:35 Clear 38 3.2 23 -5 55 55 WSW 8 13 30.4 1029 10 16.0934 0 0
4:55 am 04:55 Clear 39 3.8 23 -5 53 53 SW 9 15 30.4 1029 10 16.0934 0 0
5:15 am 05:15 Clear 39 3.9 23 -5 53 53 SW 8 13 30.39 1029 10 16.0934 0 0
5:35 am 05:35 Clear 40 4.2 23 -5 52 52 SW 7 11 30.39 1029 10 16.0934 0 0
5:55 am 05:55 Clear 39 4.1 23 -5 52 52 SW 9 15 30.38 1029 10 16.0934 0 0
6:15 am 06:15 Clear 40 4.3 23 -5 51 51 SW 8 13 30.37 1029 10 16.0934 0 0
6:35 am 06:35 Clear 40 4.4 23 -5.1 50 50 SW 9 15 30.38 1029 10 16.0934 0 0
6:55 am 06:55 Clear 40 4.6 23 -5.1 50 50 SW 9 15 30.37 1029 10 16.0934 0 0
7:15 am 07:15 Clear 41 5.1 23 -5.2 48 48 SW 9 15 30.37 1029 10 16.0934 0 0
7:35 am 07:35 Sunny 41 5.1 23 -5.2 48 48 SW 10 17 30.37 1029 10 16.0934 0 0
7:55 am 07:55 Sunny 42 5.6 23 -5.2 46 46 SW 12 19 30.37 1028 10 16.0934 0 0
8:15 am 08:15 Sunny 43 6.1 23 -4.9 46 46 SW 10 17 30.37 1028 10 16.0934 0 0
8:35 am 08:35 Sunny 45 7.1 23 -4.8 43 43 SW 10 17 30.37 1028 10 16.0934 0 0
8:55 am 08:55 Sunny 47 8.4 23 -4.8 39 39 WSW 9 15 30.36 1028 10 16.0934 0 0
9:15 am 09:15 Sunny 49 9.5 24 -4.6 37 37 WSW 10 17 30.36 1028 10 16.0934 0 0
9:35 am 09:35 Sunny 52 11.3 24 -4.3 34 34 WSW 13 20 30.36 1028 10 16.0934 0 0
9:55 am 09:55 Sunny 55 12.9 23 -4.9 29 29 WSW 17 28 30.34 1027 10 16.0934 0 0
10:15 am 10:15 Sunny 56 13.5 23 -4.8 28 28 WSW 23 37 30.34 1027 10 16.0934 0 0
10:35 am 10:35 Sunny 57 13.7 24 -4.5 28 28 WSW 22 35 30.34 1027 10 16.0934 0 0
10:55 am 10:55 Sunny 58 14.3 24 -4.5 27 27 WSW 23 37 30.34 1027 10 16.0934 0 0
11:15 am 11:15 Sunny 59 14.9 25 -3.9 27 27 WSW 21 33 30.34 1027 10 16.0934 0 0
11:35 am 11:35 Sunny 60 15.4 25 -4.1 26 26 WSW 24 39 30.33 1027 10 16.0934 0 0
11:55 am 11:55 Sunny 60 15.6 25 -3.8 26 26 WSW 22 35 30.32 1027 10 16.0934 0 0
12:15 pm 12:15 Sunny 62 16.5 26 -3.4 26 26 W 23 37 30.3 1026 10 16.0934 0 0
12:35 pm 12:35 Sunny 62 16.7 26 -3.4 25 25 WSW 22 35 30.29 1026 10 16.0934 0 0
12:55 pm 12:55 Sunny 63 17 27 -2.7 26 26 WSW 22 35 30.28 1025 10 16.0934 0 0
1:15 pm 13:15 Sunny 63 17.4 28 -2.3 26 26 WSW 20 31 30.27 1025 10 16.0934 0 0
1:35 pm 13:35 Sunny 64 17.7 27 -2.6 25 25 WSW 25 41 30.26 1025 10 16.0934 0 0
1:55 pm 13:55 Sunny 64 17.8 27 -2.8 25 25 WSW 24 39 30.25 1024 10 16.0934 0 0
2:15 pm 14:15 Sunny 64 18 28 -2.3 25 25 WSW 21 33 30.24 1024 10 16.0934 0 0
2:35 pm 14:35 Sunny 64 18 28 -2.1 26 26 WSW 22 35 30.24 1024 10 16.0934 0 0
2:55 pm 14:55 Sunny 64 17.9 27 -2.6 25 25 WSW 15 24 30.23 1024 10 16.0934 0 0
3:15 pm 15:15 Sunny 64 17.6 27 -2.8 25 25 WSW 20 31 30.23 1024 10 16.0934 0 0
3:35 pm 15:35 Sunny 63 17.3 28 -2.4 26 26 WSW 17 28 30.23 1024 10 16.0934 0 0
3:55 pm 15:55 Sunny 63 17.2 28 -2.4 26 26 SW 18 30 30.23 1024 10 16.0934 0 0
4:15 pm 16:15 Sunny 63 17.1 28 -2.1 27 27 SW 17 28 30.23 1024 10 16.0934 0 0
4:35 pm 16:35 Sunny 63 17.1 28 -2.4 26 26 WSW 17 28 30.22 1023 10 16.0934 0 0
4:55 pm 16:55 Sunny 62 16.8 28 -2.4 27 27 SW 16 26 30.22 1023 10 16.0934 0 0
5:15 pm 17:15 Sunny 62 16.6 28 -2.5 27 27 WSW 17 28 30.22 1023 10 16.0934 0 0
5:35 pm 17:35 Clear 62 16.4 27 -2.6 27 27 WSW 21 33 30.22 1023 10 16.0934 0 0
5:55 pm 17:55 Clear 61 16.1 28 -2.3 28 28 WSW 16 26 30.22 1023 10 16.0934 0 0
6:15 pm 18:15 Clear 60 15.6 29 -1.9 30 30 SW 17 28 30.23 1024 10 16.0934 0 0
6:35 pm 18:35 Clear 60 15.8 28 -2 30 30 SW 16 26 30.21 1023 10 16.0934 0 0
6:55 pm 18:55 Clear 60 15.3 29 -1.7 31 31 SW 16 26 30.23 1024 10 16.0934 0 0
7:15 pm 19:15 Clear 59 14.9 29 -1.6 32 32 SW 17 28 30.23 1024 10 16.0934 0 0
7:35 pm 19:35 Clear 59 14.9 29 -1.7 32 32 WSW 18 30 30.23 1024 10 16.0934 0 0
7:55 pm 19:55 Clear 59 14.9 29 -1.9 32 32 WSW 16 26 30.23 1024 10 16.0934 0 0
8:15 pm 20:15 Clear 58 14.7 29 -1.9 32 32 WSW 17 28 30.23 1024 10 16.0934 0 0
8:35 pm 20:35 Clear 58 14.3 28 -2 33 33 SW 17 28 30.23 1024 10 16.0934 0 0
8:55 pm 20:55 Clear 58 14.3 29 -1.9 33 33 SW 16 26 30.23 1024 10 16.0934 0 0
9:15 pm 21:15 Clear 58 14.3 28 -2 33 33 SW 21 33 30.22 1023 10 16.0934 0 0
9:35 pm 21:35 Clear 58 14.2 28 -2 33 33 WSW 20 31 30.23 1024 10 16.0934 0 0
9:55 pm 21:55 Clear 58 14.2 28 -2.1 33 33 WSW 16 26 30.24 1024 10 16.0934 0 0
10:15 pm 22:15 Clear 57 14.1 28 -2.3 32 32 WSW 17 28 30.24 1024 10 16.0934 0 0
10:35 pm 22:35 Clear 58 14.2 28 -2.4 32 32 WSW 16 26 30.24 1024 10 16.0934 0 0
10:55 pm 22:55 Clear 56 13.4 28 -2 35 35 WSW 15 24 30.25 1024 10 16.0934 0 0
11:15 pm 23:15 Clear 56 13.4 28 -2.2 34 34 WSW 14 22 30.25 1024 10 16.0934 0 0
11:35 pm 23:35 Clear 56 13.4 28 -2.2 34 34 WSW 15 24 30.25 1024 10 16.0934 0 0
11:55 pm 23:55 Clear 56 13.5 28 -2.3 34 34 WSW 15 24 30.25 1024 10 16.0934 0 0

Powered by AerisWeather